[[{"header":{"parameterUnit":"m.s-1","parameterCategory":1,"la1":30.2992,"la2":30.254,"lo1":-89.0895,"lo2":-89.0443,"dy":0.0025,"dx":0.0025,"nx":19,"ny":19,"refTime":"2026-05-01T21:00:00:Z","depth":0,"parameterNumber":2,"parameterNumberName":"U-component_of_WINDS"},"data":[0,0,0,-2.8104,-2.8106,-2.8153,-2.8153,-2.8241,-2.8242,0,0,0,0,0,0,0,0,0,0,0,-2.8105,-2.8107,-2.8104,-2.8106,-2.8153,-2.8153,-2.8241,-2.8242,0,0,0,0,0,0,0,0,0,0,0,-2.8105,-2.8106,-2.8108,-2.8106,-2.8153,-2.8153,-2.824,-2.8195,0,0,0,0,0,0,0,0,0,0,-2.8145,-2.816,-2.8106,-2.8108,-2.8107,-2.8153,-2.8153,-2.8193,-2.8198,-2.823,0,-2.8262,0,-2.8253,-2.8249,-2.825,0,0,0,-2.8095,-2.8156,-2.8155,-2.8108,-2.8107,-2.8153,-2.8129,-2.8195,-2.8202,-2.8238,-2.8263,-2.8265,-2.8254,-2.825,-2.825,-2.8467,-2.8468,0,0,-2.8093,-2.8123,-2.8151,-2.8159,-2.8152,-2.8128,-2.8131,-2.8199,-2.8229,-2.8263,-2.8267,-2.8256,-2.8251,-2.8251,-2.8465,-2.8467,0,0,0,-2.8092,-2.8122,-2.8118,-2.8157,-2.8163,-2.8129,-2.8133,-2.8226,-2.8222,-2.8267,-2.8257,-2.8251,-2.8253,-2.8464,-2.8466,-2.8571,0,0,0,-2.809,-2.8121,-2.8117,-2.8136,-2.8162,-2.8195,-2.8159,-2.8217,-2.8224,-2.8256,-2.8251,-2.8254,-2.8462,-2.8465,-2.8564,-2.8617,0,0,0,-2.8097,-2.8122,-2.8133,-2.8138,-2.8159,-2.8193,-2.8193,-2.8218,-2.8218,-2.825,-2.8254,-2.8461,-2.8464,-2.8559,-2.8607,-2.8684,0,0,0,-2.8114,-2.8227,-2.8136,-2.8257,-2.8159,-2.8256,-2.8192,-2.8263,-2.8302,-2.8252,-2.8462,-2.8466,-2.8557,-2.8601,-2.8678,-2.8757,-2.8791,0,0,-2.8274,-2.8247,-2.8316,-2.8236,-2.8357,-2.8246,-2.8383,-2.8391,-2.8367,-2.8435,-2.844,-2.8567,-2.8607,-2.8683,-2.8968,-2.8996,0,0,0,-2.8377,-2.8428,-2.8453,-2.849,-2.8497,-2.8509,-2.8492,-2.8494,-2.855,-2.8408,-2.8612,-2.8635,-2.8679,-2.8715,-2.8739,-2.8775,-2.8483,-2.8482,-2.8482,-2.865,-2.861,-2.8722,-2.8688,-2.8725,-2.8705,-2.8732,-2.8732,-2.8683,-2.8732,-2.8754,-2.8931,-2.8975,-2.8992,-2.9031,-2.8789,-2.8789,-2.8789,-2.879,-2.8883,-2.8949,-2.8877,-2.896,-2.8918,-2.8987,-2.8971,-2.8934,-2.8994,-2.8912,-2.8949,-2.8867,-2.9024,-2.9055,-2.8797,-2.8796,-2.8795,-2.8794,-2.8794,-2.9061,-2.9086,-2.9084,-2.9132,-2.9174,-2.9135,-2.9195,-2.9153,-2.9115,-2.9151,-2.917,-2.9168,-2.9164,-2.9162,-2.9162,-2.9163,-2.9163,-2.9164,-2.9164,-2.9248,-2.9242,-2.9297,-2.9311,-2.9328,-2.9346,-2.9324,-2.9341,-2.9349,-2.9315,-2.9315,-2.9263,-2.9044,-2.8993,-2.9174,-2.9172,-2.9171,-2.917,-2.9169,-2.9507,-2.944,-2.9525,-2.9543,-2.9554,-2.9599,-2.9542,-2.9579,-2.9587,-2.9618,-2.9555,-2.94,-2.9371,-2.9352,-2.931,-2.9562,-2.9562,-2.9562,-2.9562,-2.966,-2.9639,-2.9715,-2.9746,-2.977,-2.9727,-2.9825,-2.9808,-2.978,-2.9782,-2.9738,-2.9676,-2.9658,-2.9641,-2.9615,-2.9575,-2.9889,-2.989,-2.989,-2.9818,-2.9797,-2.9889,-2.9858,-2.9862,-2.9868,-2.996,-2.9998,-2.9953,-2.9902,-2.9784,-2.977,-2.9669,-2.9638,-2.9591,-2.9553,-2.9478,0,0]},{"header":{"parameterUnit":"m.s-1","parameterCategory":1,"la1":30.2992,"la2":30.254,"lo1":-89.0895,"lo2":-89.0443,"dy":0.0025,"dx":0.0025,"nx":19,"ny":19,"refTime":"2026-05-01T21:00:00:Z","depth":0,"parameterNumber":3,"parameterNumberName":"V-component_of_WINDS"},"data":[0,0,0,-6.6426,-6.6426,-6.6383,-6.6383,-6.6348,-6.6348,0,0,0,0,0,0,0,0,0,0,0,-6.6454,-6.6454,-6.6426,-6.6426,-6.6383,-6.6383,-6.6348,-6.6348,0,0,0,0,0,0,0,0,0,0,0,-6.6454,-6.6454,-6.6455,-6.6426,-6.6383,-6.6383,-6.6348,-6.6373,0,0,0,0,0,0,0,0,0,0,-6.641,-6.6452,-6.6454,-6.6455,-6.6425,-6.6383,-6.6383,-6.6373,-6.6371,-6.6377,0,-6.6389,0,-6.6368,-6.6347,-6.6347,0,0,0,-6.6414,-6.6454,-6.6429,-6.6455,-6.6425,-6.6383,-6.6399,-6.6372,-6.6369,-6.6374,-6.6388,-6.6386,-6.6368,-6.6347,-6.6347,-6.6425,-6.6425,0,0,-6.6416,-6.6454,-6.6431,-6.6428,-6.6439,-6.64,-6.6398,-6.637,-6.6387,-6.6388,-6.6385,-6.6367,-6.6347,-6.6347,-6.6424,-6.6425,0,0,0,-6.6431,-6.6456,-6.6431,-6.643,-6.6421,-6.6399,-6.6396,-6.6388,-6.6377,-6.6384,-6.6367,-6.6347,-6.6347,-6.6423,-6.6424,-6.6506,0,0,0,-6.6432,-6.6465,-6.6433,-6.6456,-6.6422,-6.6405,-6.6416,-6.6379,-6.6374,-6.6367,-6.6347,-6.6347,-6.6422,-6.6423,-6.6501,-6.6538,0,0,0,-6.6452,-6.6467,-6.6466,-6.6458,-6.6441,-6.6404,-6.6391,-6.6377,-6.6364,-6.6347,-6.6347,-6.6421,-6.6423,-6.6497,-6.6531,-6.6567,0,0,0,-6.6483,-6.654,-6.6468,-6.6524,-6.6442,-6.6456,-6.6391,-6.6399,-6.6395,-6.6347,-6.6422,-6.6424,-6.6496,-6.6527,-6.6563,-6.6604,-6.6625,0,0,-6.6576,-6.6553,-6.6583,-6.6517,-6.6554,-6.646,-6.6507,-6.6466,-6.6429,-6.6427,-6.6429,-6.6503,-6.653,-6.6566,-6.6732,-6.6749,0,0,0,-6.6625,-6.6647,-6.6648,-6.6646,-6.6617,-6.6593,-6.6542,-6.6525,-6.6522,-6.6437,-6.6525,-6.6541,-6.656,-6.6577,-6.6592,-6.6604,-6.6434,-6.6434,-6.6434,-6.6811,-6.676,-6.6805,-6.6749,-6.6748,-6.6692,-6.6685,-6.6653,-6.6604,-6.6625,-6.6624,-6.673,-6.6752,-6.6763,-6.6777,-6.6642,-6.6643,-6.6643,-6.6643,-6.694,-6.6962,-6.6893,-6.6912,-6.6857,-6.6871,-6.6818,-6.6782,-6.6784,-6.6728,-6.6742,-6.6684,-6.6783,-6.6792,-6.6649,-6.6648,-6.6647,-6.6646,-6.6646,-6.7055,-6.7056,-6.7037,-6.7026,-6.7023,-6.6963,-6.6969,-6.6918,-6.6871,-6.6885,-6.6876,-6.6875,-6.6865,-6.6885,-6.6885,-6.6885,-6.6886,-6.6886,-6.6886,-6.7181,-6.7156,-6.7169,-6.7141,-6.7131,-6.7111,-6.7054,-6.7041,-6.7014,-6.6977,-6.6976,-6.6922,-6.6804,-6.6774,-6.6892,-6.6891,-6.689,-6.6889,-6.6889,-6.7329,-6.7287,-6.7307,-6.7297,-6.7257,-6.7255,-6.7191,-6.7169,-6.7151,-6.7155,-6.7096,-6.7018,-6.699,-6.6978,-6.6952,-6.711,-6.711,-6.711,-6.711,-6.7425,-6.7406,-6.7412,-6.7399,-6.7381,-6.7323,-6.7341,-6.7295,-6.7241,-6.7225,-6.7195,-6.7158,-6.7148,-6.7125,-6.711,-6.7086,-6.7273,-6.7273,-6.7273,-6.7512,-6.7488,-6.7516,-6.7464,-6.7428,-6.7398,-6.7412,-6.7396,-6.7325,-6.7279,-6.7211,-6.7204,-6.7143,-6.7127,-6.7079,-6.7057,-6.7011,0,0]}]]